KITSAT 1 - Orbit

View from above orbital plane
View from above orbital plane
View from above satellite
View from above satellite

Ground track
Ground track

The orbit data is extracted from the following two-line orbital elements,

1 22077U 92052B   13138.51795348 -.00000001  00000-0  24459-3 0  5023
2 22077 066.0849 208.8910 0012524 310.6674 142.8657 12.86478775975630
Epoch (UTC): 18 May 2013 12:25:51
Eccentricity: 0.0012524
inclination: 66.0849°
perigee height: 1306 km
apogee height: 1325 km
right ascension of ascending node: 208.8910°
argument of perigee: 310.6674°
revolutions per day: 12.86478775
mean anomaly at epoch: 142.8657°
orbit number at epoch: 97563

The dashed part of the orbit path shows where the satellite is in the earth's shadow,  

Developed and maintained by Chris Peat, Heavens-Above GmbH. Please read the updated FAQ before sending e-mail. Imprint. DLR